User: anonymous   Login
Location: Columbia
(38.9520°N, 92.3340°W)
Time: 13:53:26
(UTC-05:00)
Language:

Cosmos 158 Rocket - Orbit

View from above orbital plane
View from above orbital plane
View from above satellite
View from above satellite

Ground track
Ground track

The orbit data is extracted from the following two-line orbital elements,

1  2802U 67045B   16240.73739943 +.00000030 +00000-0 +16441-4 0  9995
2  2802 074.0138 352.9401 0065698 118.3111 242.4695 14.43593274586633
Epoch (UTC): 27 August 2016 17:41:51
Eccentricity: 0.0065698
inclination: 74.0138°
perigee height: 700 km
apogee height: 793 km
right ascension of ascending node: 352.9401°
argument of perigee: 118.3111°
revolutions per day: 14.43593274
mean anomaly at epoch: 242.4695°
orbit number at epoch: 58663

The dashed part of the orbit path shows where the satellite is in the earth's shadow,  

DLR